This is the latest recevied weather packets stored in our database for station/object KY4GW. If no packets are shown the sender has not sent any weather packets the latest 10 day(s).
| Time | Temp. | Humidity | Pressure | Rain* | Wind** | Luminosity | Snow |
|---|---|---|---|---|---|---|---|
| 1777418492 | 22.22° C | 72% | 1016.2 hPa | 0 mm | - | 43 W/m² | - |
| 1777418188 | 22.78° C | 74% | 1016.2 hPa | 0 mm | - | 49 W/m² | - |
| 1777417884 | 22.78° C | 71% | 1016.2 hPa | 0 mm | - | 52 W/m² | - |
| 1777417581 | 22.78° C | 72% | 1016.2 hPa | 0 mm | - | 60 W/m² | - |
| 1777417276 | 22.78° C | 70% | 1016.2 hPa | 0 mm | - | 68 W/m² | - |
| 1777416973 | 22.78° C | 71% | 1016.2 hPa | 0 mm | - | 75 W/m² | - |
| 1777416672 | 23.33° C | 69% | 1016.2 hPa | 0 mm | - | 83 W/m² | - |
| 1777416369 | 23.33° C | 68% | 1016.2 hPa | 0 mm | - | 80 W/m² | - |
| 1777416063 | 23.33° C | 69% | 1015.8 hPa | 0 mm | - | 68 W/m² | - |
| 1777415758 | 23.33° C | 68% | 1015.8 hPa | 0 mm | - | 70 W/m² | - |
| 1777415454 | 23.89° C | 70% | 1015.1 hPa | 0 mm | - | 82 W/m² | - |
| 1777415150 | 23.89° C | 67% | 1015.1 hPa | 0 mm | - | 83 W/m² | - |
| 1777414845 | 24.44° C | 63% | 1015.1 hPa | 0 mm | - | 122 W/m² | - |
| 1777414545 | 24.44° C | 70% | 1015.1 hPa | 0 mm | - | 112 W/m² | - |
| 1777414239 | 24.44° C | 66% | 1015.1 hPa | 0 mm | - | 138 W/m² | - |
| 1777413934 | 23.89° C | 70% | 1015.1 hPa | 0 mm | - | 157 W/m² | - |
| 1777413629 | 24.44° C | 68% | 1015.5 hPa | 0 mm | - | 116 W/m² | - |
| 1777413326 | 24.44° C | 66% | 1015.5 hPa | 0 mm | - | 112 W/m² | - |
| 1777413022 | 24.44° C | 66% | 1015.5 hPa | 0 mm | - | 128 W/m² | - |
| 1777412716 | 24.44° C | 68% | 1015.8 hPa | 0 mm | - | 153 W/m² | - |
| 1777412414 | 24.44° C | 65% | 1015.8 hPa | 0 mm | - | 186 W/m² | - |
| 1777412114 | 24.44° C | 65% | 1015.8 hPa | 0 mm | - | 196 W/m² | - |
| 1777411809 | 24.44° C | 66% | 1016.2 hPa | 0 mm | - | 201 W/m² | - |
| 1777411508 | 24.44° C | 69% | 1016.2 hPa | 0 mm | - | 207 W/m² | - |
| 1777411202 | 24.44° C | 68% | 1016.2 hPa | 0 mm | - | 207 W/m² | - |
* Rain latest hour (hover to see other rain measurements)
** Current wind speed in m/s (hover to see current wind gust speed)